Regional Weather Roundup
Issued by NWS Wakefield, VA

Home | Current Version | Previous Version | Text Only | Print | Product List | Glossary Off
Versions: 1 2 3 4 5 6 7 8 9 10 11 12 13 14 15 16 17 18 19 20 21 22 23 24 25 26 27 28

000
ASUS41 KAKQ 262215
RWRAKQ

REGIONAL WEATHER ROUNDUP
NATIONAL WEATHER SERVICE WAKEFIELD VA
600 PM EDT SUN MAR 26 2017

Note: "fair" indicates few or no clouds below 12,000 feet with no
significant weather and/or obstructions to visibility. * = Denotes
station may not report precipitation (e.g., rain,snow,etc.),
thunder or fog.

VAZ042-051-052>054-056-262300-
NORTHERN VIRGINIA

CITY           SKY/WX    TMP DP  RH WIND       PRES   REMARKS
WASH NATIONAL  CLOUDY    49  46  90 E12       30.25F
DULLES         CLOUDY    48  43  82 E8        30.23F
FORT BELVOIR   CLOUDY    50  45  81 VRB7      30.24F
QUANTICO       CLOUDY    52  48  86 E9        30.24F
FREDERICKSBRG* CLOUDY    53  48  84 NE7       30.21F
STAFFORD*      CLOUDY    50  48  93 E8        30.26F
WARRENTON      CLOUDY    51  44  76 E8        30.20F
CULPEPER*      CLOUDY    52  47  84 NE6       30.21F
MANASSAS*      CLOUDY    50  45  83 E10       30.23F
LEESBURG*      CLOUDY    48  46  93 E6        30.23F
WINCHESTER     CLOUDY    45  43  93 SE10      30.18F FOG
FRONT ROYAL*   CLOUDY    50  46  87 E8        30.16S
LURAY*         CLOUDY    57  52  82 NE6       30.14S
$$

VAZ048-049-060>072-079>083-262300-
CENTRAL AND SOUTH CENTRAL VIRGINIA

CITY           SKY/WX    TMP DP  RH WIND       PRES   REMARKS
RICHMOND       PTSUNNY   66  54  65 E12       30.16S
CHESTERFIELD*  MOCLDY   N/A N/A N/A SE10      30.16S
PETERSBURG*    CLOUDY    72  48  42 SE5       30.15F
HANOVER        MOSUNNY   63  50  62 NE9       30.18F
TAPPAHANNOCK*  MOSUNNY   57  44  61 NE10      30.22S
QUINTON*       FAIR      66  55  66 MISG      30.17S
CHARLOTTSVILLE CLOUDY    55  48  77 NE10      30.18R
GORDONSVILLE*  CLOUDY    54  49  85 NE7       30.18S
ORANGE*        CLOUDY    52  46  82 N7        30.21S
LOUISA*        MOSUNNY   63  54  72 E9        30.16F
BUMPASS*       FAIR      57  50  77 NE6       30.18F
FARMVILLE*     CLOUDY    73  52  48 SE9       30.10F
CREWE*         CLOUDY    72  52  49 S12       30.13S
FORT PICKETT*  FAIR      72  43  35 S12G21    30.13F
CHASE CITY*    MOCLDY    73  49  42 SE7G16    30.12F
CLARKSVILLE*   MOCLDY    72  52  49 SE8       30.12S
SOUTH HILL*    PTSUNNY   72  53  50 S8        30.19F
LAWRENCEVILLE* FAIR      73  48  40 S7G16     30.14F
EMPORIA*       PTSUNNY   73  46  38 SE9G20    30.16F
$$

VAZ088>098-262300-
SOUTHEAST VIRGINIA

CITY           SKY/WX    TMP DP  RH WIND       PRES   REMARKS
NORFOLK        PTSUNNY   56  49  77 NE8       30.20S
VIRGINIA BEACH PTSUNNY   57  49  74 E7        30.20F
NORFOLK NAVAL  PTSUNNY   54  47  77 E12       30.21F
WEST POINT*    CLOUDY    60  51  71 E12       30.21F
SALUDA*        FAIR      54  51  90 E6        30.22S
NEWPORT NEWS   PTSUNNY   57  51  80 E10       30.20F
LANGLEY AFB    PTSUNNY   57  52  83 NE10      30.20F
FORT EUSTIS    PTSUNNY   63  52  68 E10       30.16F
WILLIAMSBURG*  PTSUNNY   66  55  68 E5        30.20F
HR EXEC AP*    CLOUDY    70  54  56 NE7       30.16S
FRANKLIN*      PTSUNNY   73  51  45 SE10G16   30.16F
US460-WAKEFLD  MOSUNNY   67  54  63 E9        30.16F
$$

VAZ020-022-025-037-045-262300-
WEST CENTRAL AND SOUTHWEST VIRGINIA

CITY           SKY/WX    TMP DP  RH WIND       PRES   REMARKS
STAUNTON*      CLOUDY    56  50  80 S7        30.16S
WAYNESBORO*    CLOUDY    53  51  94 SE8       30.15S
HOT SPRINGS VA RAIN      52  52 100 SE8G20    30.14F VSB<1/4
LYNCHBURG      LGT RAIN  63  53  70 NW6       30.15R
DANVILLE       CLOUDY    70  50  49 SW5       30.11S
SOUTH BOSTON*  CLOUDY    73  47  38 S10G16    30.11S
MARTINSVILLE   LGT RAIN  59  58  94 CALM      30.16F
ROANOKE        LGT RAIN  61  57  87 SE5       30.15S
BLACKSBURG     CLOUDY    61  55  82 SE9       30.15S
DUBLIN*        CLOUDY    62  55  77 S9G18     30.12S
MARION*        PTSUNNY   65  51  60 S9G21     30.09S
HILLSVILLE*    CLOUDY    57  55  92 S10G16    30.12F
RICHLANDS*     HVY RAIN  60  57  88 SW6       30.07R
WISE*          PTSUNNY   64  50  59 S13       30.04S
ABINGDON*      CLOUDY    70  50  47 W13G21    30.03S
$$

MDZ021>025-VAZ099-100-262300-
SOUTHERN MARYLAND AND THE DELMARVA PENINSULA

CITY           SKY/WX    TMP DP  RH WIND       PRES   REMARKS
PATUXENT RIVER CLOUDY    50  49  96 E12       30.23F
BAY BRIDGE APT CLOUDY    46  45  93 E8G17     30.26F FOG
LEONARDTOWN    CLOUDY    50  45  81 E7        30.25S
DOVER          CLOUDY    45  45 100 NE16      30.28F
GEORGETOWN     CLOUDY    45  43  93 E12       30.29F FOG
EASTON         CLOUDY    48  45  87 E13G18    30.29F
CAMBRIDGE      CLOUDY    46  45  93 E9G16     30.25F
SALISBURY      CLOUDY    47  46  97 E12       30.26F FOG
OCEAN CITY     FOG       45  44  97 NE10      30.28F VSB 3/4
WALLOPS ISLAND FOG       48  48 100 NE15      30.26F VSB 1/2
ACCOMACK*      CLOUDY    51  49  92 E9        30.23F
$$

NCZ012>017-030>032-262300-
NORTH CENTRAL AND EASTERN NORTH CAROLINA

CITY           SKY/WX    TMP DP  RH WIND       PRES   REMARKS
ROANOKE RAPIDS FAIR      73  52  46 SE7       30.15S
RALEIGH        PTSUNNY   74  46  36 S8        30.13S
ELIZABETH CITY PTSUNNY   70  55  59 SE8       30.20S
AHOSKIE*         N/A     71  53  53 S7        30.17S
EDENTON*       MOSUNNY   70  55  58 S10       30.19F
CURRITUCK*     CLOUDY    69  54  60 E9        30.21S
KILL DEVIL HLS NOT AVBL
MANTEO         MOSUNNY   69  53  55 S8        30.21S
CAPE HATTERAS  SUNNY     73  55  53 SE6       30.21S
TARBORO*       NOT AVBL
GOLDSBORO      MOSUNNY   75  53  46 S9        30.14F
WASHINGTON     MOSUNNY   72  54  53 SE12      30.18S
GREENVILLE     MOSUNNY   75  50  41 S13       30.17S
NEW BERN       SUNNY     74  51  44 S13       30.19S
WILMINGTON     MOSUNNY   71  54  54 S12       30.18S
$$

VAZ048-262300-
ELSEWHERE

CITY           SKY/WX    TMP DP  RH WIND       PRES   REMARKS
HARRISBURG PA  CLOUDY    44  42  93 SE13      30.26S FOG
BALTIMORE      DRIZZLE   47  46  97 E12       30.27R FOG
ANNAPOLIS      CLOUDY    48  45  89 E7        30.26F
ANDREWS AFB    CLOUDY    47  45  91 E10       30.24S
PHILADELPHIA   CLOUDY    44  39  82 E16       30.34F
HENDERSON NC   SUNNY     70  47  43 S8        30.13S
GREENSBORO     CLOUDY    63  61  93 NW5       30.13R
ROCKY MOUNT    MOSUNNY   73  52  47 S8        30.15F
$$

VAZ100-262300-
MARINE

STATION/POSITION TIME  TEMP    WIND        PRES    WAVE   SWELL
                       AIR SEA DIR/SP/G            HT/PER HT/PER
                 (UTC) (F)     (DEG/KT/KT) (MB)    (FT/S) (FT/S)
CAPE MAY NJ      2148   43 44   60/ 13/ 19 1025.6F
LEWES DE         2142   43 45   70/ 19/ 22 1025.5F
OCEAN-CITY-INLET 2142   44 45   80/  5/  8 1025.7F
WACHAPREAGUE VA  2142   49 55   50/ 15/ 18 1023.7F
THOMAS POINT MD  2200   46 45  100/ 11/ 13   N/A
GOOSES REEF MD   2150   47     110/ 12/ 14 1024.7F
COVE POINT MD    2142   48     110/ 12/ 13 1024.6F
SOLOMONS ISLAND  2142   49 48   80/ 13/ 15   N/A
BISHOPS HEAD MD  2142   50 52   70/ 12/ 16 1024.3F
PINEY POINT MD   2148          100/ 15/ 17   N/A
POTOMAC MD       2150   49      70/ 10/ 12 1022.9F
CAMBRIDGE MD     2142   47 47   80/ 10/ 15 1023.9F
LEWISETTA VA     2142   50 50   90/  9/ 13 1023.3F
RAPPAHANNOCK LGT 2148           80/ 13/ 14 1023.8F
STINGRAY PT      2150   51      90/  4/  6 1023.8F
YORK RVR RNG VA  2142   52      80/  9/ 10 1022.4F
YORKTOWN VA      2142   53 51   80/  8/  9 1022.7F
JAMESTOWN VA     2150   59      80/ 12/ 16   N/A
DOMINION TERM VA 2142   54      70/ 15/ 19 1022.6F
KIPTOPEKE VA     2142      50   80/ 12/ 15   N/A
CHES BAY BRIDGE  2142   49 48   80/ 12/ 13 1022.8F
CAPE HENRY VA    2142   49      80/  5/  7   N/A
WILLOUBY STN VA  2142   52      60/ 11/ 11 1023.5F
S CRANEY ISL VA  2142   54      50/ 10/ 11 1022.1F
CAPE HENRY BUOY  2142      51                N/A     3/ 6
CAPE CHARLES BUO 2151      48                N/A     3/ 6
OFFSHORE WE BUOY 2151      51                N/A     3/ 6
64NM E OF VA BCH 2150   57 52  100/  8/ 10 1023.5F   3/ 6   3/ 6
DUCK PIER NC     2142   58 47  120/ 13/ 15 1022.3F
44100 DUCK FRF   2105      52                N/A     2/11
44056 DUCK FRF   2130      52                N/A     2/18
OREGON INLET NC  2148          100/  5/  7 1023.1F
HATTERAS NC      2142   71 60  130/  3/  4 1022.9F
DIAMOND SHLS NC  2150   70 76  160/  8/ 10 1023.3R   4/10   3/10
CAPE LOOKOUT NC  2200   67     140/  9/  9 1022.6F
$$




USA.gov is the U.S. government's official web portal to all federal, state and local government web resources and services.